{"data":{"norad_id":58077,"intl_designator":"2023-160C","name":"STARLINK-30613","alt_names":[],"object_type":"PAYLOAD","status":"ACTIVE","operator":null,"country":"US","launch_date":"2023-10-18","launch_site_code":"AFETR","launch_vehicle":null,"mission":null,"orbit_class":"UNKNOWN","rcs_meters":null,"size_class":null,"mass_kg":null,"dimensions":null,"purposes":["comms"],"wikipedia_slug":null,"has_3d_model":false,"image_url":null,"decayed_at":null,"tle_current":{"epoch":"2026-09-20T17:12:13.619520Z","epoch_age_seconds":118942,"freshness":"FRESH","line1":"1 58077U 23160C   26263.71682430  .00000140  00000+0  14597-4 0  9993","line2":"2 58077  43.0012  56.4015 0000985 265.3363  94.7377 15.27576944162781","mean_motion":15.27576944,"eccentricity":9.85e-5,"inclination_deg":43.0012,"raan_deg":56.4015,"arg_perigee_deg":265.3363,"mean_anomaly_deg":94.7377,"bstar":1.4597e-5,"rev_number":16278,"period_min":94.266937299363,"perigee_km":482.38241908649,"apogee_km":483.73407455011,"semimajor_km":6861.1952468183,"source":"CELESTRAK","updated_at":"2026-09-21T09:00:33.781693Z"}}}